Volver al catálogo

OPS 4029

ActivoMilitarMEO
NORAD 12930·PAYLOAD·🇺🇸 United States

Lanzado Oct 31, 1981 desde Cape Canaveral Space Force Station

Loading…

Próximos Pases (próximas 24 horas)

TLE

ActualizadoSource: Space-Track

Época: Sep 14, 2026, 05:50 UTC

1 12930U 81107A   26257.24344417 -.00000442  00000-0  00000-0 0  9994
2 12930   5.6461   2.4466 1042832  45.1067 154.4163  1.00349793  8765

Sigue OPS 4029 en tiempo real con AllMySat

Download on the App Store